Terminal Aerodrome Forecast
Issued by NWS

Home | Current Version | Previous Version | Text Only | Print | Product List | Glossary On
Versions: 1 2 3 4 5 6 7 8 9 10 11 12 13 14 15 16 17 18 19 20 21 22 23 24 25 26 27 28 29 30 31 32 33 34 35 36 37
000
FTUS41 KCTP 181138
TAFBFD
TAF
KBFD 181138Z 1812/1912 15008KT P6SM BKN250
     FM181500 19009G14KT P6SM SCT050 BKN150
     FM181900 22009KT P6SM BKN050
     FM182300 28006KT P6SM BKN040=

USA.gov is the U.S. government's official web portal to all federal, state and local government web resources and services.